Home > Weather > Rio de Janeiro > Past weeks

Flag for Brazil Past Weather in Rio de Janeiro, Rio de Janeiro, Brazil — Yesterday and Last 2 Weeks

Now
79 °F

Clear.


Feels Like: 81 °F
Forecast: N/A
Wind: 5 mph from South

Location: Rio De Janeiro Airport

Current Time: Aug 29, 2016 at 8:42:38 PM

Latest Report: Aug 29, 2016 at 8:00 PM


Visibility: 10 mi

Pressure: 29.95 "Hg

Humidity: 61%

Dew Point: 64 °F

Location of Rio de JaneiroLocation

Past Weather in Rio de Janeiro — Graph

°F

Rio de Janeiro Temperature Yesterday

Maximum temperature yesterday: 90 °F (at 1:00 PM)
Minimum temperature yesterday: 68 °F (at 3:00 AM)
Average temperature yesterday: 77 °F

High & Low Weather Summary for the Past Weeks

 TemperatureHumidityPressure
High93 °F (Aug 15, 4:00 PM)100% (Aug 20, 7:00 PM)30.27 "Hg (Aug 20, 7:00 PM)
Low63 °F (Aug 22, 1:00 AM)30% (Aug 15, 4:00 PM)29.71 "Hg (Aug 15, 3:00 PM)
Average73 °F72%30.03 "Hg
* Reported Aug 14 7:00 PM — Aug 29 7:00 PM, Rio de Janeiro, Weather by CustomWeather, © 2016

Note: Actual official high and low records may vary slightly from our data, if they occured in-between our weather recording intervals... More about our weather records

Advertising

Rio de Janeiro Weather History for the Previous 24 Hours

Scroll right to see more
 ConditionsComfort  
Time TempWeatherWind HumidityBarometerVisibility
7:00 PM
Mon, Aug 29
79 °FClear.5 mph65%29.92 "Hg10 mi
6:00 PM77 °FClear.10 mph69%29.92 "Hg10 mi
5:00 PM81 °FClear.10 mph58%29.92 "Hg10 mi
4:00 PM82 °FSunny.10 mph58%29.92 "Hg10 mi
3:00 PM82 °FSunny.14 mph62%29.92 "Hg10 mi
2:00 PM86 °FSunny.13 mph49%29.92 "Hg10 mi
1:00 PM86 °FSunny.9 mph46%29.95 "Hg10 mi
12:00 PM91 °FSunny.8 mph30%29.98 "Hg10 mi
11:00 AM88 °FSunny.7 mph35%29.98 "Hg10 mi
10:00 AM84 °FSunny.5 mph43%30.01 "Hg10 mi
9:00 AM81 °FSunny.7 mph62%30.01 "Hg10 mi
8:00 AM77 °FSunny.5 mph69%30.01 "Hg10 mi
7:00 AM73 °FSunny.7 mph78%30.01 "Hg10 mi
6:00 AM72 °FSunny.7 mph83%29.98 "Hg10 mi
5:00 AM72 °FClear.6 mph78%29.95 "Hg10 mi
10:00 PM
Sun, Aug 28
79 °FClear.6 mph54%29.98 "Hg10 mi
9:00 PM79 °FClear.5 mph54%29.95 "Hg10 mi
8:00 PM79 °FClear.3 mph54%29.95 "Hg10 mi
Weather by CustomWeather, © 2016

See weather overviewHow to use our weather pages